Volver al catálogo

SL-8 R/B

ActivoLEO
NORAD 5218·ROCKET BODY·🇷🇺 Russia

Lanzado May 7, 1971 desde Plesetsk Cosmodrome

Loading…

Próximos Pases (próximas 24 horas)

TLE

ActualizadoSource: Space-Track

Época: Sep 14, 2026, 15:06 UTC

1 05218U 71041J   26257.62978715 -.00000046  00000-0 -25648-3 0  9996
2 05218  74.0303  21.7184 0066767  12.5387 359.1806 12.32230110705836

Sigue SL-8 R/B en tiempo real con AllMySat

Download on the App Store